Time,TemperatureF,DewpointF,PressureIn,WindDirection,WindDirectionDegrees,WindSpeedMPH,WindSpeedGustMPH,Humidity,HourlyPrecipIn,Conditions,Clouds,dailyrainin,SoftwareType,DateUTC
2013-08-17 00:00:00,71.0,60.0,-100.00,WSW,240,9.0,11.0,67,-99.99,,,-99.99,,2013-08-17 04:00:00,
2013-08-17 00:23:00,71.0,59.0,-100.00,WSW,240,9.0,11.0,66,-99.99,,,-99.99,,2013-08-17 04:23:00,
2013-08-17 00:53:00,71.0,60.0,-100.00,WSW,240,9.0,11.0,67,-99.99,,,-99.99,,2013-08-17 04:53:00,
2013-08-17 01:51:00,71.0,60.0,-100.00,WSW,250,7.0,9.0,68,-99.99,,,-99.99,,2013-08-17 05:51:00,
2013-08-17 02:01:00,71.0,60.0,-100.00,WSW,250,7.0,9.0,68,-99.99,,,-99.99,,2013-08-17 06:01:00,
2013-08-17 02:51:00,71.0,60.0,-100.00,West,270,9.0,11.0,69,-99.99,,,-99.99,,2013-08-17 06:51:00,
2013-08-17 03:52:00,71.0,61.0,-100.00,West,270,9.0,9.0,72,-99.99,,,-99.99,,2013-08-17 07:52:00,
2013-08-17 04:01:00,71.0,61.0,-100.00,West,270,9.0,9.0,72,-99.99,,,-99.99,,2013-08-17 08:01:00,
2013-08-17 04:51:00,69.0,62.0,-100.00,NW,310,7.0,9.0,79,-99.99,,,-99.99,,2013-08-17 08:51:00,
2013-08-17 05:01:00,69.0,62.0,-100.00,NW,310,7.0,9.0,79,-99.99,,,-99.99,,2013-08-17 09:01:00,
2013-08-17 05:53:00,69.0,61.0,-100.00,NW,310,9.0,11.0,76,-99.99,,,-99.99,,2013-08-17 09:53:00,
2013-08-17 06:42:00,69.0,57.0,-100.00,NW,310,11.0,11.0,65,-99.99,,,-99.99,,2013-08-17 10:42:00,
2013-08-17 06:52:00,69.0,57.0,-100.00,NW,310,11.0,11.0,65,-99.99,,,-99.99,,2013-08-17 10:52:00,
2013-08-17 07:00:00,68.0,57.0,-100.00,North,350,7.0,7.0,68,-99.99,,,-99.99,,2013-08-17 11:00:00,
2013-08-17 07:52:00,68.0,57.0,-100.00,North,350,7.0,7.0,68,-99.99,,,-99.99,,2013-08-17 11:52:00,
2013-08-17 08:51:00,68.0,57.0,-100.00,North,350,9.0,11.0,67,-99.99,,,-99.99,,2013-08-17 12:51:00,
2013-08-17 09:00:00,67.0,56.0,-100.00,North,10,7.0,9.0,69,-99.99,,,-99.99,,2013-08-17 13:00:00,
2013-08-17 09:52:00,67.0,56.0,-100.00,North,10,7.0,9.0,69,-99.99,,,-99.99,,2013-08-17 13:52:00,
2013-08-17 10:00:00,71.0,57.0,-100.00,North,0,0.0,2.0,61,-99.99,,,-99.99,,2013-08-17 14:00:00,
2013-08-17 10:52:00,71.0,57.0,-100.00,North,0,0.0,2.0,61,-99.99,,,-99.99,,2013-08-17 14:52:00,
2013-08-17 11:00:00,70.0,58.0,-100.00,North,0,0.0,2.0,64,-99.99,,,-99.99,,2013-08-17 15:00:00,
2013-08-17 11:53:00,70.0,58.0,-100.00,North,0,0.0,2.0,64,-99.99,,,-99.99,,2013-08-17 15:53:00,
2013-08-17 12:42:00,71.0,59.0,-100.00,South,190,2.0,2.0,66,-99.99,,,-99.99,,2013-08-17 16:42:00,
2013-08-17 12:53:00,71.0,59.0,-100.00,South,190,2.0,2.0,66,-99.99,,,-99.99,,2013-08-17 16:53:00,
2013-08-17 13:00:00,72.0,60.0,-100.00,SSW,210,4.0,7.0,66,-99.99,,,-99.99,,2013-08-17 17:00:00,
2013-08-17 13:52:00,72.0,60.0,-100.00,SSW,210,4.0,7.0,66,-99.99,,,-99.99,,2013-08-17 17:52:00,
2013-08-17 14:21:00,73.0,61.0,-100.00,SSW,210,7.0,9.0,65,-99.99,,,-99.99,,2013-08-17 18:21:00,
2013-08-17 14:32:00,73.0,61.0,-100.00,SSW,210,7.0,9.0,65,-99.99,,,-99.99,,2013-08-17 18:32:00,
2013-08-17 14:52:00,73.0,61.0,-100.00,SW,220,9.0,9.0,66,-99.99,,,-99.99,,2013-08-17 18:52:00,
2013-08-17 15:41:00,74.0,59.0,-100.00,SW,220,9.0,9.0,57,-99.99,,,-99.99,,2013-08-17 19:41:00,
2013-08-17 17:00:00,76.0,57.0,-100.00,SW,220,7.0,7.0,52,-99.99,,,-99.99,,2013-08-17 21:00:00,
2013-08-17 17:53:00,76.0,57.0,-100.00,SW,220,7.0,7.0,52,-99.99,,,-99.99,,2013-08-17 21:53:00,
2013-08-17 18:00:00,76.0,59.0,-100.00,WSW,250,4.0,4.0,55,-99.99,,,-99.99,,2013-08-17 22:00:00,
2013-08-17 18:42:00,76.0,59.0,-100.00,WSW,250,4.0,4.0,55,-99.99,,,-99.99,,2013-08-17 22:42:00,
2013-08-17 18:52:00,76.0,59.0,-100.00,WSW,250,4.0,4.0,55,-99.99,,,-99.99,,2013-08-17 22:52:00,
2013-08-17 19:00:00,75.0,62.0,-100.00,WSW,250,2.0,4.0,63,-99.99,,,-99.99,,2013-08-17 23:00:00,
2013-08-17 19:51:00,75.0,62.0,-100.00,WSW,250,2.0,4.0,63,-99.99,,,-99.99,,2013-08-17 23:51:00,
2013-08-17 20:00:00,73.0,62.0,-100.00,SSW,200,11.0,13.0,67,-99.99,,,-99.99,,2013-08-18 00:00:00,
2013-08-17 20:21:00,74.0,63.0,-100.00,South,180,13.0,16.0,68,-99.99,,,-99.99,,2013-08-18 00:21:00,
2013-08-17 20:51:00,73.0,62.0,-100.00,SSW,200,11.0,13.0,67,-99.99,,,-99.99,,2013-08-18 00:51:00,
2013-08-17 21:21:00,72.0,63.0,-100.00,SSW,210,9.0,11.0,72,-99.99,,,-99.99,,2013-08-18 01:21:00,
2013-08-17 21:31:00,72.0,63.0,-100.00,SSW,210,9.0,11.0,72,-99.99,,,-99.99,,2013-08-18 01:31:00,
2013-08-17 21:52:00,72.0,64.0,-100.00,SW,220,11.0,11.0,73,-99.99,,,-99.99,,2013-08-18 01:52:00,
2013-08-17 22:21:00,72.0,62.0,-100.00,SSW,210,9.0,11.0,70,-99.99,,,-99.99,,2013-08-18 02:21:00,
2013-08-17 22:52:00,72.0,63.0,-100.00,SSW,200,9.0,11.0,72,-99.99,,,-99.99,,2013-08-18 02:52:00,
2013-08-17 23:21:00,72.0,63.0,-100.00,SSW,200,9.0,9.0,74,-99.99,,,-99.99,,2013-08-18 03:21:00,
2013-08-17 23:53:00,72.0,62.0,-100.00,SW,220,7.0,9.0,71,-99.99,,,-99.99,,2013-08-18 03:53:00,